Regional Weather Roundup
Issued by NWS Charleston, SC

Current Version | Previous Version | Text Only | Print | Product List | Glossary Off
Versions: 1 2 3 4 5 6 7 8 9 10 11 12 13 14 15 16 17 18 19 20 21 22 23 24 25 26 27 28 29 30 31 32 33 34 35 36 37 38 39 40 41 42 43 44 45 46 47 48 49 50

000
ASUS42 KCHS 290312
RWRCHS

REGIONAL WEATHER ROUNDUP
NATIONAL WEATHER SERVICE CHARLESTON SC
1100 PM EDT FRI APR 28 2017

NOTE: "FAIR" INDICATES FEW OR NO CLOUDS BELOW 12,000 FEET WITH NO
SIGNIFICANT WEATHER AND/OR OBSTRUCTIONS TO VISIBILITY.

NOT ALL STATIONS ARE QUALITY CONTROLLED. USE DATA WITH CAUTION...
ESPECIALLY DEWPOINT OBSERVATIONS.

SCZ027-030-031-034>040-042>050-290400-
...SOUTHEAST SOUTH CAROLINA...

CITY           SKY/WX    TMP DP  RH WIND       PRES   REMARKS
N CHARLESTON   MOCLDY    76  73  91 S13       30.14S
WATERFRONT PRK   N/A     76  75  96 S8        30.13R
JOHNS ISLAND   FAIR      75  75 100 S10       30.15S
PINOPOLIS        N/A     75  73  94 S5        30.06R
MONCKS CORNER  MOCLDY    73  72  94 S6        30.14R
SUMMERVILLE    FAIR      73  72  94 SE5       30.14S
BEAUFORT MCAS  MOCLDY    77  76  96 S8        30.14R
BEAUFORT ARPT  FAIR      75  73  94 S12       30.14R FOG
HILTON HEAD IS CLEAR     75  75 100 S10       30.15R
WALTERBORO     CLEAR     73  72  94 S6        30.14S
ALLENDALE      FAIR      77  72  83 SE8       30.11R

...SOUTHERN MIDLANDS AND PEE DEE...

CITY           SKY/WX    TMP DP  RH WIND       PRES   REMARKS
GEORGETOWN     CLOUDY    75  73  94 S8        30.16S
KINGSTREE      FAIR      73  70  88 SE7       30.13R
ORANGEBURG     CLEAR     76  72  87 S7        30.12R
BARNWELL       FAIR      79  73  83 SE7       30.12R
AIKEN          FAIR      75  70  83 SE7       30.14R
MANNING        FAIR      73  70  88 SW14G23   30.13R
COLUMBIA       CLEAR     80  71  74 S10       30.09R
SUMTER         CLEAR     76  72  85 S7        30.09R
FLORENCE       CLEAR     76  73  91 S10       30.12R
MYRTLE BEACH   NOT AVBL
N MYRTLE BEACH PTCLDY    73  73 100 S13       30.15R

$$

GAZ063-065-086>088-099>101-113>116-118-119-134>141-150-290400-
...SOUTHEAST GEORGIA...

CITY           SKY/WX    TMP DP  RH WIND       PRES   REMARKS
SAVANNAH ARPT  PTCLDY    77  72  84 S14       30.13R
HUNTER AAF     CLEAR     76  76 100 S6        30.11R
FORT STEWART   PTCLDY    76  70  83 SE6       30.10S
STATESBORO     PTCLDY    78  70  75 S7        30.11R
SYLVANIA       PTCLDY   N/A N/A N/A SE3       30.13R
CLAXTON        FAIR      78  75  91 E5        30.11R

...CSRA...CENTRAL AND FAR SOUTHEAST GEORGIA...

CITY           SKY/WX    TMP DP  RH WIND       PRES   REMARKS
THOMSON        CLOUDY    71  69  92 CALM      30.15R
AUGUSTA-BUSH   PTCLDY    79  72  79 SE7       30.08R
AUGUSTA-DANIEL CLEAR     81  69  67 SE6       30.10R
SWAINSBORO     FAIR      79  72  78 SE7       30.11R
VIDALIA        CLEAR     81  70  69 S8        30.11R
EASTMAN        FAIR      74  61  64 CALM      30.11R
HAZLEHURST     FAIR      82  73  74 SE5       30.09R
ALMA           CLEAR     79  72  79 SE5       30.10R
WAYCROSS       CLEAR     81  75  83 SE6       30.10S
JESUP          FAIR      77  68  73 S6        30.12S
BAXLEY         FAIR      81  75  83 SE6       30.10R
BRUNSWICK      PTCLDY    77  73  88 SE13      30.13S
SAINT SIMONS   CLOUDY    76  72  87 SE12      30.13R

$$

SCZ027-028-034-036>038-045-046-048>050-GAZ119-141-290400-
...LAKE AND SUPPLEMENTAL COASTAL OBSERVATIONS...

STATION/POSITION TIME  TEMP    WIND        PRES    WAVE   SWELL
                       AIR SEA DIR/SP/G            HT/PER HT/PER/DIR
                 (UTC) (F)     (DEG/KT/KT) (MB)    (FT/S) (FT/S/D)
WINYAH BAY       0145   76     190/  7     1020.0
LAKE MURRAY      0220   78     160/  8/  9 1018.3R
ACE BASIN NERRS  0145   76     170/  1     1020.0
FORT PULASKI     0248   75 75  190/  5/ 12 1020.9R
SAPELO ISLAND    0200   76     160/ 10     1020.0

$$

ANZ835-935-AMZ111-154-330-350-352-354-370-450-454-472-290400-
...C-MAN AND BUOY OBSERVATIONS...

STATION/POSITION TIME  TEMP    WIND        PRES    WAVE   SWELL
                       AIR SEA DIR/SP/G            HT/PER HT/PER/DIR
                 (UTC) (F)     (DEG/KT/KT) (MB)    (FT/S) (FT/S/D)
BUOY 41004       0250   76 74  180/ 12/ 14 1021.0R   4/ 5   2/100/ 8
BUOY 41008       0150   75 73  140/ 14/ 16 1019.3    3/ 5   2/ 90/ 8
FOLLY BEACH CMAN 0200   76     170/ 13/ 14 1021.2R
CAPERS NEARSHORE 0208   75 76  190/ 10/ 14 1020.5R
FRIPP NEARSHORE  0208   75 74  130/ 14/ 17 1020.2R


STATION/POSITION TIME  TEMP    WIND        PRES    WAVE   SWELL
                       AIR SEA DIR/SP/G            HT/PER HT/PER/DIR
                 (UTC) (F)     (DEG/KT/KT) (MB)    (FT/S) (FT/S/D)
5E ST. MARYS GA  0230      74                N/A     4/ 4
FRYING PAN BUOY  0250   75 73  190/  8/ 10 1021.5R   3/ 8   3/120/ 8
BUOY 41025       0250   77 76  200/ 16/ 19 1021.5    4/ 8   3/120/ 8
CAPE LOOKOUT NC  0200   74     190/ 11/ 12 1021.2R
BUOY 41002       0250   75 76  140/ 12/ 14 1024.7R   3/ 8   3/ 80/ 8
BUOY 41010       0250   78 79  120/ 14/ 16 1022.0R   4/ 7   2/100/ 7
ST AUGUSTINE FL  0300   76 78  140/ 15/ 18 1021.1R


$$




USA.gov is the U.S. government's official web portal to all federal, state and local government web resources and services.